| time (UTC) | temp F | wind direction | speed MPH | gust MPH | rain 1hr in | rain 24hr in | rain mn in | humidity % | barometer mb |
| 20260505041541 | 62 | 234 | 15.0 | 18.0 | 0.00 | 0.00 | 0.00 | 85 | 1015.8 |
| 20260505040056 | 63 | 234 | 14.0 | 18.0 | 0.00 | 0.00 | 0.00 | 84 | 1015.7 |
| 20260505034543 | 62 | 227 | 11.0 | 14.0 | 0.00 | 0.00 | 0.00 | 81 | 1015.6 |
| 20260505033039 | 63 | 226 | 11.0 | 14.0 | 0.00 | 0.00 | 0.00 | 81 | 1015.6 |
| 20260505031547 | 62 | 214 | 8.0 | 11.0 | 0.00 | 0.00 | 0.00 | 80 | 1015.5 |
| 20260505030042 | 62 | 231 | 11.0 | 14.0 | 0.00 | 0.00 | 0.00 | 80 | 1015.5 |
| 20260505024538 | 62 | 238 | 7.0 | 11.0 | 0.00 | 0.00 | 0.00 | 82 | 1015.3 |
| 20260505023036 | 62 | 230 | 8.0 | 12.0 | 0.00 | 0.00 | 0.00 | 82 | 1015.4 |
| 20260505021537 | 62 | 215 | 8.0 | 12.0 | 0.00 | 0.00 | 0.00 | 83 | 1015.5 |
| 20260505020040 | 62 | 219 | 11.0 | 16.0 | 0.00 | 0.00 | 0.00 | 83 | 1015.5 |
| 20260505014541 | 62 | 233 | 12.0 | 16.0 | 0.00 | 0.00 | 0.00 | 82 | 1015.3 |
| 20260505013034 | 62 | 215 | 11.0 | 16.0 | 0.00 | 0.00 | 0.00 | 83 | 1015.7 |
| 20260505011537 | 62 | 215 | 11.0 | 16.0 | 0.00 | 0.00 | 0.00 | 82 | 1015.6 |
| 20260505010034 | 62 | 221 | 12.0 | 16.0 | 0.00 | 0.00 | 0.00 | 82 | 1015.7 |
| 20260505004533 | 62 | 217 | 11.0 | 15.0 | 0.00 | 0.00 | 0.00 | 83 | 1015.9 |
| 20260505003029 | 62 | 215 | 11.0 | 15.0 | 0.00 | 0.00 | 0.00 | 82 | 1015.8 |
| 20260505001526 | 62 | 218 | 12.0 | 15.0 | 0.00 | 0.00 | 0.00 | 82 | 1016.0 |
| 20260505000038 | 62 | 216 | 11.0 | 15.0 | 0.00 | 0.00 | 0.00 | 82 | 1016.1 |
| 20260504234517 | 63 | 225 | 11.0 | 15.0 | 0.00 | 0.00 | 0.00 | 81 | 1016.0 |
| 20260504233016 | 62 | 233 | 12.0 | 14.0 | 0.00 | 0.00 | 0.00 | 79 | 1016.0 |
| 20260504231515 | 62 | 232 | 13.0 | 16.0 | 0.00 | 0.00 | 0.00 | 78 | 1015.9 |
| 20260504230015 | 62 | 227 | 11.0 | 14.0 | 0.00 | 0.00 | 0.00 | 78 | 1016.0 |
| 20260504224517 | 62 | 232 | 11.0 | 15.0 | 0.00 | 0.00 | 0.00 | 79 | 1015.8 |
| 20260504223012 | 62 | 238 | 12.0 | 15.0 | 0.00 | 0.00 | 0.00 | 78 | 1016.0 |
| 20260504221511 | 62 | 232 | 12.0 | 16.0 | 0.00 | 0.00 | 0.00 | 79 | 1016.2 |
| 20260504220029 | 62 | 238 | 11.0 | 15.0 | 0.00 | 0.00 | 0.00 | 82 | 1016.6 |
| 20260504214512 | 62 | 232 | 11.0 | 14.0 | 0.00 | 0.00 | 0.00 | 82 | 1016.6 |
| 20260504213011 | 62 | 244 | 12.0 | 15.0 | 0.00 | 0.00 | 0.00 | 82 | 1016.9 |
| 20260504211508 | 62 | 247 | 11.0 | 16.0 | 0.00 | 0.00 | 0.00 | 81 | 1016.9 |
| 20260504210008 | 62 | 262 | 11.0 | 15.0 | 0.00 | 0.00 | 0.00 | 80 | 1017.0 |
| 20260504204507 | 62 | 259 | 12.0 | 15.0 | 0.00 | 0.00 | 0.00 | 80 | 1016.9 |
| 20260504203006 | 62 | 253 | 12.0 | 14.0 | 0.00 | 0.00 | 0.00 | 78 | 1016.8 |
| 20260504201504 | 61 | 243 | 12.0 | 15.0 | 0.00 | 0.00 | 0.00 | 79 | 1016.8 |
| 20260504200006 | 62 | 246 | 10.0 | 13.0 | 0.00 | 0.00 | 0.00 | 81 | 1017.0 |
| 20260504194503 | 61 | 240 | 9.0 | 14.0 | 0.00 | 0.00 | 0.00 | 81 | 1016.9 |
| 20260504193002 | 62 | 262 | 10.0 | 13.0 | 0.00 | 0.00 | 0.00 | 82 | 1017.2 |
| 20260504191501 | 62 | 236 | 9.0 | 11.0 | 0.00 | 0.00 | 0.00 | 80 | 1017.3 |
| 20260504190108 | 61 | 252 | 9.0 | 12.0 | 0.00 | 0.00 | 0.00 | 80 | 1017.1 |
| 20260504184558 | 61 | 254 | 9.0 | 12.0 | 0.00 | 0.00 | 0.00 | 80 | 1017.4 |
| 20260504183102 | 61 | 248 | 11.0 | 13.0 | 0.00 | 0.00 | 0.00 | 81 | 1017.3 |
| 20260504181555 | 61 | 254 | 9.0 | 12.0 | 0.00 | 0.00 | 0.00 | 81 | 1017.2 |
| 20260504180132 | 61 | 248 | 9.0 | 12.0 | 0.00 | 0.00 | 0.00 | 80 | 1017.2 |
| 20260504174553 | 61 | 260 | 7.0 | 12.0 | 0.00 | 0.00 | 0.00 | 81 | 1017.1 |
| 20260504173052 | 61 | 251 | 11.0 | 13.0 | 0.00 | 0.00 | 0.00 | 81 | 1017.1 |
| 20260504171551 | 61 | 236 | 7.0 | 11.0 | 0.00 | 0.00 | 0.00 | 81 | 1016.9 |
| 20260504081505 | 61 | 268 | 15.0 | 21.0 | 0.00 | 0.00 | 0.00 | 83 | 1015.8 |